Regional Weather Roundup
Issued by NWS

Home | Current Version | Previous Version | Graphics & Text | Print | Product List | Glossary On
Versions: 1 2 3 4 5 6 7 8 9 10 11 12 13 14 15 16 17 18 19 20 21 22 23 24 25 26 27 28 29 30 31 32 33 34 35 36 37 38 39 40 41 42 43 44 45 46 47 48 49 50
636
ASUS43 KLSX 070057
RWRMO

WEATHER SUMMARY FOR MISSOURI
NATIONAL WEATHER SERVICE SPRINGFIELD MO
700 PM CST SAT FEB 06 2016

NOTE: "FAIR" INDICATES FEW OR NO CLOUDS BELOW 12,000 FEET WITH NO
       SIGNIFICANT WEATHER AND/OR OBSTRUCTIONS TO VISIBILITY.
       CURRENT SKY AND/OR WEATHER CONDITIONS ARE NOT AVAILABLE FOR
       CHILLICOTHE AND FARMINGTON.

MOZ001>031-035>038-043-044-053-054-070200-
...NORTHERN AND WESTERN MISSOURI...

CITY           SKY/WX    TMP DP  RH WIND       PRES   REMARKS
KANSAS CTY INT CLOUDY    40  30  67 S10       30.15F
LEE`S SUMMIT   CLEAR     41  29  62 SW8       30.18S
ST JOSEPH      PTCLDY    37  28  70 S8        30.13F
CHILLICOTHE      N/A     43  29  57 SW5       30.16F

$$
MOZ066>068-077>081-088>096-101>105-070200-
...SOUTHWEST MISSOURI...

CITY           SKY/WX    TMP DP  RH WIND       PRES   REMARKS
SPRINGFIELD    CLEAR     40  25  55 SW5       30.22S
JOPLIN         CLEAR     42  29  59 SW6       30.24F

$$
MOZ032>034-039>042-045>050-055>058-069>072-070200-
...CENTRAL MISSOURI...

CITY           SKY/WX    TMP DP  RH WIND       PRES   REMARKS
COLUMBIA       NOT AVBL
JEFFERSON CITY CLEAR     47  27  45 SW6       30.20S
ROLLA          CLEAR     41  26  55 SW7       30.19R
SEDALIA        CLEAR     43  27  53 SW5       30.20F

$$
MOZ051-052-059>065-070200-
...EAST CENTRAL MISSOURI...

CITY           SKY/WX    TMP DP  RH WIND       PRES   REMARKS
ST LOUIS INTL  PTCLDY    48  26  42 SW5       30.20R

$$
MOZ072>076-082>087-097>100-106>115-070200-
...SOUTH CENTRAL AND SOUTHEAST MISSOURI...

CITY           SKY/WX    TMP DP  RH WIND       PRES   REMARKS
CAPE GIRARDEAU CLEAR     44  25  47 S8        30.26S
POPLAR BLUFF   CLEAR     43  23  45 S7        30.27R
WEST PLAINS    CLEAR     40  15  36 S5        30.25R

$$



USA.gov is the U.S. government's official web portal to all federal, state and local government web resources and services.